Enid, OK

2:51 AM CDT on May 21, 2018 (GMT -0500)
Enid Woodring Municipal

Weather History for KWDG - November, 2012

Change the Weather History Date:

Saturday, November 24, 2012

  Actual Average Record
Temperature  
Mean Temperature 42 °F -  
Max Temperature 60 °F 53 °F 80 °F (2017)
Min Temperature 23 °F 36 °F 19 °F (2003)
Degree Days  
Heating Degree Days 24    
Moisture  
Dew Point 23 °F    
Average Humidity 55    
Maximum Humidity 86    
Minimum Humidity 23    
Precipitation  
Precipitation 0.00 in - - ()
Sea Level Pressure  
Sea Level Pressure 30.16 in    
Wind  
Wind Speed 7 mph (South)    
Max Wind Speed 22 mph    
Max Gust Speed 31 mph    
Visibility 10 miles    
Events      
Averages and records for this station are not official NWS values.
T = Trace of Precipitation, MM = Missing Value Source: NWS Daily Summary

Daily Weather History Graph

Daily Weather History Graph

Search for Another Location

Airport or City:

Astronomy

Nov. 24, 2012 Rise Set
Actual Time 7:18 AM CST 5:17 PM CST
Civil Twilight 6:50 AM CST 5:45 PM CST
Nautical Twilight 6:18 AM CST 6:17 PM CST
Astronomical Twilight 5:47 AM CST 6:48 PM CST
Moon 2:59 PM CST (11/24) 3:41 AM CST (11/24)
Length of Visible Light 10h 55m
Length of Day
9h 59m
Waxing Gibbous, 87% of the Moon is Illuminated
Nov 24
Waxing Gibbous
Nov 28
Full
Dec 6
Last Quarter
Dec 13
New
Dec 19
First Quarter

Hourly Weather History & Observations

Time (CST) Temp. Windchill Dew Point Humidity Pressure Visibility Wind Dir Wind Speed Gust Speed Precip Events Conditions
12:15 AM 30.2 °F - 24.8 °F 80% 30.43 in 10.0 mi Calm Calm - N/A   Clear
12:35 AM 28.4 °F 22.2 °F 23.0 °F 80% 30.42 in 10.0 mi South 5.8 mph - N/A   Clear
12:55 AM 26.6 °F - 21.2 °F 80% 30.42 in 10.0 mi Calm Calm - N/A   Clear
1:35 AM 28.4 °F - 21.2 °F 74% 30.41 in 10.0 mi Calm Calm - N/A   Clear
2:15 AM 28.4 °F - 21.2 °F 74% 30.39 in 10.0 mi Calm Calm - N/A   Clear
2:55 AM 26.6 °F - 21.2 °F 80% 30.38 in 10.0 mi Calm Calm - N/A   Clear
3:15 AM 28.4 °F - 21.2 °F 74% 30.37 in 10.0 mi Calm Calm - N/A   Clear
3:55 AM 24.8 °F - 21.2 °F 86% 30.37 in 10.0 mi Calm Calm - N/A   Clear
4:15 AM 24.8 °F 17.9 °F 19.4 °F 80% 30.37 in 10.0 mi SSW 5.8 mph - N/A   Clear
4:35 AM 23.0 °F 15.8 °F 19.4 °F 86% 30.36 in 10.0 mi South 5.8 mph - N/A   Clear
4:55 AM 23.0 °F 17.0 °F 19.4 °F 86% 30.36 in 10.0 mi SSE 4.6 mph - N/A   Clear
6:07 AM 23.0 °F 13.9 °F 19.4 °F 86% 30.35 in 10.0 mi SSE 8.1 mph - N/A   Clear
6:50 AM 23.0 °F 15.8 °F 19.4 °F 86% 30.35 in 10.0 mi South 5.8 mph - N/A   Clear
8:50 AM 32.0 °F 22.1 °F 24.8 °F 75% 30.31 in 10.0 mi South 13.8 mph - N/A   Scattered Clouds
9:50 AM 41.0 °F 32.8 °F 24.8 °F 53% 30.29 in 10.0 mi South 16.1 mph - N/A   Scattered Clouds
10:50 AM 48.2 °F - 23.0 °F 37% 30.26 in 10.0 mi South 18.4 mph 25.3 mph N/A   Scattered Clouds
11:50 AM 53.6 °F - 24.8 °F 33% 30.20 in 10.0 mi South 18.4 mph 25.3 mph N/A   Scattered Clouds
12:50 PM 57.2 °F - 24.8 °F 29% 30.14 in 10.0 mi SSW 17.3 mph 25.3 mph N/A   Scattered Clouds
1:50 PM 60.8 °F - 24.8 °F 25% 30.08 in 10.0 mi SSW 20.7 mph 31.1 mph N/A   Scattered Clouds
2:50 PM 60.8 °F - 23.0 °F 23% 30.05 in 10.0 mi South 21.9 mph 27.6 mph N/A   Scattered Clouds
3:50 PM 60.8 °F - 24.8 °F 25% 30.02 in 10.0 mi South 18.4 mph 26.5 mph N/A   Scattered Clouds
5:50 PM 51.8 °F - 23.0 °F 33% 29.99 in 10.0 mi South 13.8 mph - N/A   Mostly Cloudy
6:50 PM 50.0 °F - 23.0 °F 35% 30.00 in 10.0 mi South 10.4 mph - N/A   Clear
8:15 PM 46.4 °F 40.7 °F 24.8 °F 43% 29.98 in 10.0 mi South 12.7 mph - N/A   Clear
8:35 PM 46.4 °F 40.7 °F 24.8 °F 43% 29.97 in 10.0 mi South 12.7 mph - N/A   Clear
8:50 PM 46.4 °F 41.1 °F 23.0 °F 40% 29.98 in 10.0 mi South 11.5 mph - N/A   Clear
8:55 PM 46.4 °F 40.7 °F 23.0 °F 40% 29.97 in 10.0 mi South 12.7 mph - N/A   Clear
9:15 PM 44.6 °F 38.8 °F 24.8 °F 46% 29.97 in 10.0 mi South 11.5 mph - N/A   Clear
9:35 PM 44.6 °F 38.8 °F 24.8 °F 46% 29.96 in 10.0 mi South 11.5 mph - N/A   Clear
9:55 PM 44.6 °F 38.8 °F 24.8 °F 46% 29.96 in 10.0 mi South 11.5 mph - N/A   Clear
10:15 PM 42.8 °F 37.5 °F 24.8 °F 49% 29.95 in 10.0 mi South 9.2 mph - N/A   Clear
10:35 PM 42.8 °F 37.0 °F 24.8 °F 49% 29.95 in 10.0 mi South 10.4 mph - N/A   Clear
10:55 PM 44.6 °F 39.2 °F 23.0 °F 43% 29.95 in 10.0 mi South 10.4 mph - N/A   Clear
11:15 PM 44.6 °F 39.2 °F 23.0 °F 43% 29.94 in 10.0 mi South 10.4 mph - N/A   Clear
11:35 PM 44.6 °F 38.4 °F 23.0 °F 43% 29.94 in 10.0 mi South 12.7 mph - N/A   Clear
11:55 PM 44.6 °F 39.2 °F 23.0 °F 43% 29.94 in 10.0 mi South 10.4 mph - N/A   Clear